TimeCST,TemperatureF,Dew PointF,Humidity,Sea Level PressureIn,VisibilityMPH,Wind Direction,Wind SpeedMPH,Gust SpeedMPH,PrecipitationIn,Events,Conditions,WindDirDegrees,DateUTC
12:56 AM,45.0,44.1,97,30.19,5.0,North,5.8,-,0.01,Rain,Rain,360,2013-01-03 06:56:00
1:21 AM,44.6,44.6,100,30.18,6.0,North,9.2,-,0.01,Rain,Rain,350,2013-01-03 07:21:00
1:56 AM,44.1,43.0,96,30.18,7.0,NNW,8.1,-,0.01,Rain,Light Rain,340,2013-01-03 07:56:00
2:56 AM,44.1,43.0,96,30.19,5.0,North,5.8,-,N/A,Rain,Rain,360,2013-01-03 08:56:00
3:15 AM,44.6,44.6,100,30.19,6.0,North,5.8,-,0.01,Rain,Rain,360,2013-01-03 09:15:00
3:51 AM,44.6,42.8,93,30.18,7.0,North,3.5,-,0.01,Rain,Rain,350,2013-01-03 09:51:00
3:56 AM,44.1,43.0,96,30.18,7.0,North,3.5,-,0.01,Rain,Rain,360,2013-01-03 09:56:00
4:09 AM,44.6,44.6,100,30.18,6.0,North,5.8,-,0.01,Rain,Rain,10,2013-01-03 10:09:00
4:56 AM,43.0,42.1,97,30.20,9.0,North,6.9,-,0.02,Rain,Light Rain,360,2013-01-03 10:56:00
5:56 AM,43.0,42.1,97,30.22,10.0,North,8.1,-,0.00,Rain,Light Rain,350,2013-01-03 11:56:00
6:51 AM,42.8,42.8,100,30.21,10.0,North,6.9,-,0.00,Rain,Light Rain,360,2013-01-03 12:51:00
6:56 AM,43.0,42.1,97,30.22,10.0,North,6.9,-,0.00,Rain,Light Rain,360,2013-01-03 12:56:00
7:35 AM,42.8,42.8,100,30.22,6.0,North,8.1,16.1,0.00,Rain,Light Rain,360,2013-01-03 13:35:00
7:45 AM,42.8,42.8,100,30.22,4.0,North,8.1,-,0.00,Rain,Light Rain,360,2013-01-03 13:45:00
7:56 AM,43.0,42.1,97,30.23,4.0,North,9.2,-,N/A,Rain,Rain,360,2013-01-03 13:56:00
8:56 AM,42.1,42.1,100,30.26,6.0,North,6.9,-,N/A,Rain,Light Rain,360,2013-01-03 14:56:00
9:31 AM,42.8,42.8,100,30.26,10.0,North,5.8,-,N/A,Rain,Light Rain,350,2013-01-03 15:31:00
9:49 AM,42.8,42.8,100,30.25,10.0,North,8.1,-,N/A,Rain,Light Rain,350,2013-01-03 15:49:00
9:56 AM,43.0,42.1,97,30.26,10.0,North,11.5,-,N/A,,Overcast,350,2013-01-03 15:56:00
9:59 AM,42.8,42.8,100,30.25,10.0,North,9.2,-,0.00,Rain,Light Rain,350,2013-01-03 15:59:00
10:19 AM,44.6,42.8,93,30.26,10.0,North,9.2,-,0.00,,Overcast,360,2013-01-03 16:19:00
10:56 AM,45.0,42.1,90,30.25,10.0,North,10.4,16.1,0.00,,Overcast,360,2013-01-03 16:56:00
11:04 AM,44.6,42.8,93,30.24,10.0,North,11.5,-,N/A,,Overcast,350,2013-01-03 17:04:00
11:56 AM,46.0,42.1,86,30.23,10.0,North,9.2,-,N/A,,Overcast,350,2013-01-03 17:56:00
12:56 PM,46.0,41.0,83,30.22,10.0,NNW,8.1,-,N/A,,Overcast,340,2013-01-03 18:56:00
1:56 PM,46.0,39.9,79,30.21,10.0,North,10.4,-,N/A,,Overcast,360,2013-01-03 19:56:00
2:56 PM,46.0,39.0,76,30.24,10.0,North,11.5,18.4,N/A,,Overcast,350,2013-01-03 20:56:00
3:56 PM,46.0,39.0,76,30.24,10.0,North,9.2,17.3,N/A,,Mostly Cloudy,360,2013-01-03 21:56:00
4:56 PM,45.0,37.0,74,30.27,10.0,North,8.1,-,N/A,,Mostly Cloudy,350,2013-01-03 22:56:00
5:56 PM,43.0,37.0,80,30.29,10.0,North,6.9,-,N/A,,Mostly Cloudy,360,2013-01-03 23:56:00
6:56 PM,41.0,36.0,82,30.30,10.0,North,4.6,-,N/A,,Scattered Clouds,350,2013-01-04 00:56:00
7:56 PM,39.0,35.1,86,30.34,10.0,North,3.5,-,N/A,,Partly Cloudy,350,2013-01-04 01:56:00
8:56 PM,37.9,34.0,86,30.34,10.0,North,3.5,-,N/A,,Partly Cloudy,10,2013-01-04 02:56:00
9:56 PM,37.0,32.0,82,30.35,10.0,North,5.8,-,N/A,,Clear,350,2013-01-04 03:56:00
10:56 PM,37.9,30.9,76,30.33,10.0,North,8.1,-,N/A,,Clear,360,2013-01-04 04:56:00
11:56 PM,37.0,30.9,79,30.34,10.0,North,5.8,-,N/A,,Clear,350,2013-01-04 05:56:00